{"data":{"norad_id":62909,"epoch":"2026-09-21T22:34:49.931616Z","epoch_age_seconds":43729,"freshness":"FRESH","line1":"1 62909U 25027C   26264.94085569  .00156083  00000+0  11923-2 0  9998","line2":"2 62909  42.9973 245.0588 0002214 268.3420  91.7194 15.70936673 94010","mean_motion":15.70936673,"eccentricity":0.0002214,"inclination_deg":42.9973,"raan_deg":245.0588,"arg_perigee_deg":268.342,"mean_anomaly_deg":91.7194,"bstar":0.0011923,"rev_number":9401,"period_min":91.665057207561,"perigee_km":354.72777984508,"apogee_km":357.70975257836,"semimajor_km":6734.3557662117,"source":"CELESTRAK","updated_at":"2026-09-22T09:00:49.706851Z"}}